Home   Weather   Manaus   Past weeks

Flag for Brazil Past Weather in Manaus, Amazonas, Brazil — Yesterday and Last 2 Weeks

Now
88 °F

Scattered clouds.


Feels Like: 98 °F
Forecast: 76 / 87 °F
Wind: 8 mph from Southeast

Location: Manaus Aeroporto

Current Time: Apr 27, 2017 at 12:41:19 pm

Latest Report: Apr 27, 2017 at 12:00 pm


Visibility: N/A

Pressure: 29.86 "Hg

Humidity: 66%

Dew Point: 75 °F

Location of ManausLocation

Past Weather in Manaus — Graph

°F

Manaus Temperature Yesterday

Maximum temperature yesterday: 90 °F (at 2:00 pm)
Minimum temperature yesterday: 75 °F (at 12:00 am)
Average temperature yesterday: 82 °F

High & Low Weather Summary for the Past Weeks

 TemperatureHumidityPressure
High90 °F (Apr 26, 2:00 pm)94% (Apr 13, 5:00 am)30.01 "Hg (Apr 13, 5:00 am)
Low72 °F (Apr 16, 11:00 am)62% (Apr 13, 2:00 pm)29.74 "Hg (Apr 12, 4:00 pm)
Average80 °F83%29.86 "Hg
* Reported Apr 12 11:00 am — Apr 27 11:00 am, Manaus, Weather by CustomWeather, © 2017

Note: Actual official high and low records may vary slightly from our data, if they occured in-between our weather recording intervals... More about our weather records

Advertising

Manaus Weather History for the Previous 24 Hours

Scroll right to see more
 ConditionsComfort  
Time TempWeatherWind HumidityBarometerVisibility
11:00 am
Thu, Apr 27
88 °FScattered clouds.7 mph66%29.89 "HgN/A
10:00 am86 °FScattered clouds.8 mph70%29.89 "HgN/A
9:00 am84 °FSunny.7 mph74%29.89 "Hg10 mi
8:00 am82 °FSunny.7 mph74%29.86 "Hg10 mi
7:00 am81 °FSunny.6 mph79%29.83 "Hg10 mi
6:00 am77 °FSunny.5 mph89%29.83 "Hg10 mi
5:00 am77 °FClear.3 mph89%29.80 "Hg10 mi
4:00 am77 °FClear.2 mph89%29.80 "Hg10 mi
3:00 am79 °FClear.2 mph84%29.83 "Hg10 mi
2:00 am79 °FClear.5 mph84%29.83 "Hg10 mi
1:00 am79 °FClear.5 mph84%29.86 "Hg10 mi
12:00 am81 °FClear.3 mph79%29.86 "Hg10 mi
11:00 pm
Wed, Apr 26
81 °FClear.6 mph79%29.86 "Hg10 mi
10:00 pm81 °FClear.5 mph79%29.86 "Hg10 mi
9:00 pm81 °FClear.2 mph84%29.83 "Hg10 mi
8:00 pm82 °FClear.3 mph79%29.77 "Hg10 mi
7:00 pm84 °FPassing clouds.5 mph70%29.77 "HgN/A
6:00 pm84 °FPassing clouds.9 mph74%29.74 "HgN/A
5:00 pm88 °FScattered clouds.5 mph66%29.74 "HgN/A
4:00 pm88 °FThundershowers. Scattered clouds.8 mph66%29.74 "HgN/A
3:00 pm90 °FScattered clouds.7 mph63%29.74 "HgN/A
2:00 pm90 °FScattered clouds.7 mph67%29.77 "HgN/A
1:00 pm88 °FScattered clouds.7 mph70%29.83 "HgN/A
12:00 pm86 °FScattered clouds.8 mph70%29.86 "HgN/A
Weather by CustomWeather, © 2017

See weather overviewHow to use our weather pages